OBJECT B, 64049

Orbit data source: Space-Track

You're viewing an Uncataloged Satellite

Recently launched and/or uncataloged satellites may have evolving metadata. Metadata may include but not limited to: Owner, Maufacturer, Bus, Motor, and Mission.

OBJECT B, 64049 is a Chinese satellite in SSO that was launched on Sat, 17 May 2025 UTC via a ZHUQUE-2E launch vehicle from the Jiuquan Satellite Launch Center, China (JSC). Unknown objects in Earth's orbit typically refer to objects detected orbiting the Earth but have not yet been identified or cataloged. These objects could be anything from previously untracked satellites, spent rocket stages, debris from satellite collisions, or even natural meteoroids temporarily captured by Earth's gravity.

Loading next visibility...
Identifier
64049, 2025-103B
Orbit
SSO
Country
Flag of CNCN / PRC
Related business
Manufacturer
Changsha Tianyi
Mission
Operational Amateur Imaging
Bus & Motor
TY, Unknown motor
Mass
~50 kg wet, ~50 kg dry
Launch date (UTC)
2025-05-17 (1 year ago)
Launch vehicle
ZHUQUE-2E
Launch site
Jiuquan Satellite Launch Center, China (JSC)
Object type
Unknown
Shape & HBR
Box + 2 Pan + 1 Ant, 1.1 m
Radar Cross Section
1.671 m², Large (>1 m²)

Expand to show TLE details & history
Last TLE update: 5 hours ago

TLE from 5 hours ago
0 OBJECT B
1 64049U 25103B   26207.60478687  .00003422  00000-0  16126-3 0  9997
2 64049  97.3782 278.6202 0003423  72.2806 287.8803 15.20156685 66057
Epoch: 2026-07-26T14:30Z
TLE epoch observation values (Epoch: 2026-07-26T14:30:53.585Z)
Latitude
Longitude
116.59661°
Altitude
507.736 km
Speed
7.611 km/s
True Right ascension
18h 34m 28s
True Declination
0° 00' 00"
Sunlit
Object was in full shadow at epoch
Visualization orbit readout
Latitude
Unknown
Longitude
Unknown
Altitude
Unknown
Speed
Unknown
Apparent Right ascension
Unknown
Apparent Declination
Unknown
Sunlit
N/A
Visualization observer readout
Local Sidereal Time
08:42:02
Azimuth
Unknown
Elevation
Unknown
Doppler factor
Unknown
Orbital elements
Apogee altitude
504.687 km
Perigee altitude
499.977 km
Semi-major axis
6,880.469 km
Eccentricity
0.00034
Inclination
97.3782°
RAAN
278.6202°
Arg. of periapsis
72.2806°
True anomaly
287.84296°
Mean anomaly
287.8803°
Eccentric anomaly
287.86163°
Mean motion
3.80291 °/min
Orbital period
94.66 mins
BSTAR
0.00016126
Loading maneuver chart data...
Computing Atmospheric mass density...
Loading historical data...
Loading historical data...
Loading historical data...
Loading historical data...
Loading historical data...
Loading historical data...
Loading historical data...

Documentation

Showing up to 5 results
|